Location: Black Creek
(40.9000°S, 175.5500°E)
Time: 08:23:25
(UTC+00:00)

Explorer 7 - Pass Details

Date: 12 November 2024
Orbit: 455 x 598 km, 50.3° (Epoch: 07 December)

Event Time Altitude Azimuth Distance (km) Brightness Sun altitude
Rises 10:45:09 0° 244° (WSW) 2,543 10.9 -28.6°
Reaches altitude 10° 10:47:32 10° 255° (WSW) 1,642 9.6 -28.7°
Enters shadow 10:47:45 11° 257° (WSW) 1,563 9.5 -28.7°
